Location: Unspecified
(0.0000°N, 0.0000°E)
Time: 00:46:41
(UTC+00:00)

N. Korean satellite - Pass Details

Date: 27 March 2017
Orbit: 461 x 520 km, 97.2° (Epoch: 28 March)

Event Time Altitude Azimuth Distance (km) Brightness Sun altitude
Rises 18:55:38 0° 177° (S) 2,611 10.2 -12.6°
Reaches altitude 10° 18:57:46 10° 182° (S) 1,715 9.3 -13.1°
Maximum altitude 19:01:22 51° 259° (WSW) 631 7.5 -14.0°
Drops below altitude 10° 19:04:53 10° 336° (NNW) 1,674 9.6 -14.9°
Sets 19:06:57 0° 341° (NNW) 2,541 10.5 -15.4°
